• In Czech Republic
  • List of Countries
  • For 7 days
  • Water Temperature
  • Satellite Maps
  • Weather Map
  • Weather Widgets
  • user-avatar
    Login

    Hourly Weather Kapan

    Today, 17 February, Saturday

    Time Temperature Precipitation Wind Pressure Humidity
    00:00 +6°C° 0 mm 1 mps 688 mmHg 81%
    01:00 +6°C° 0 mm 1 mps 688 mmHg 80%
    02:00 +6°C° 0 mm 1 mps 688 mmHg 79%
    03:00 +6°C° 0 mm 1 mps 687 mmHg 78%
    04:00 +6°C° 0 mm 1 mps 687 mmHg 79%
    05:00 +6°C° 0 mm 1 mps 687 mmHg 79%
    06:00 +6°C° 0 mm 1 mps 686 mmHg 79%
    07:00 +6°C° 0 mm 1 mps 686 mmHg 77%
    08:00 +7°C° 0 mm 1 mps 687 mmHg 75%
    09:00 +8°C° 0 mm 1 mps 687 mmHg 78%
    10:00 +9°C° 0 mm 1 mps 686 mmHg 76%
    11:00 +9°C° 0 mm 1 mps 686 mmHg 74%
    12:00 +10°C° 0 mm 1 mps 686 mmHg 72%
    13:00 +9°C° 0 mm 2 mps 685 mmHg 72%
    14:00 +9°C° 0 mm 2 mps 685 mmHg 71%
    15:00 +9°C° 0 mm 2 mps 685 mmHg 75%
    16:00 +8°C° 0 mm 2 mps 684 mmHg 77%
    17:00 +7°C° 0 mm 2 mps 684 mmHg 79%
    18:00 +8°C° 0 mm 1 mps 684 mmHg 81%
    19:00 +7°C° 0 mm 1 mps 683 mmHg 82%
    20:00 +7°C° 0 mm 1 mps 683 mmHg 83%
    21:00 +7°C° 0 mm 1 mps 683 mmHg 84%
    22:00 +6°C° 0 mm 2 mps 682 mmHg 84%
    23:00 +6°C° 0 mm 2 mps 682 mmHg 85%

    Tomorrow, 18 February, Sunday

    Time Temperature Precipitation Wind Pressure Humidity
    00:00 +5°C° 0 mm 2 mps 682 mmHg 86%
    01:00 +5°C° 0.1 mm 2 mps 681 mmHg 87%
    02:00 +5°C° 0.1 mm 2 mps 681 mmHg 87%
    03:00 +5°C° 0.1 mm 2 mps 680 mmHg 88%
    04:00 +5°C° 0.1 mm 2 mps 680 mmHg 88%
    05:00 +5°C° 0.1 mm 2 mps 680 mmHg 89%
    06:00 +5°C° 0.1 mm 2 mps 679 mmHg 90%
    07:00 +5°C° 1 mm 2 mps 679 mmHg 88%
    08:00 +5°C° 1 mm 2 mps 679 mmHg 87%
    09:00 +4°C° 1 mm 3 mps 679 mmHg 86%
    10:00 +4°C° 1.6 mm 3 mps 678 mmHg 87%
    11:00 +4°C° 1.6 mm 3 mps 678 mmHg 87%
    12:00 +4°C° 1.6 mm 3 mps 677 mmHg 88%
    13:00 +4°C° 1.4 mm 3 mps 677 mmHg 88%
    14:00 +4°C° 1.4 mm 3 mps 677 mmHg 88%
    15:00 +3°C° 1.4 mm 3 mps 677 mmHg 89%
    16:00 +4°C° 1.5 mm 2 mps 677 mmHg 90%
    17:00 +4°C° 1.5 mm 2 mps 678 mmHg 90%
    18:00 +3°C° 1.5 mm 2 mps 678 mmHg 91%
    19:00 +3°C° 0.3 mm 2 mps 679 mmHg 91%
    20:00 +3°C° 0.3 mm 2 mps 679 mmHg 91%
    21:00 +4°C° 0.3 mm 1 mps 679 mmHg 91%
    22:00 +4°C° 0.2 mm 1 mps 680 mmHg 90%
    23:00 +3°C° 0.2 mm 1 mps 680 mmHg 90%

    Day after tomorrow, 19 February, Monday

    Time Temperature Precipitation Wind Pressure Humidity
    00:00 +3°C° 0.2 mm 1 mps 680 mmHg 90%
    01:00 +3°C° 0.2 mm 1 mps 680 mmHg 88%
    02:00 +3°C° 0.2 mm 1 mps 680 mmHg 87%
    03:00 +2°C° 0.2 mm 0 mps 680 mmHg 85%
    04:00 +2°C° 0.2 mm 0 mps 681 mmHg 85%
    05:00 +2°C° 0.2 mm 0 mps 681 mmHg 85%
    06:00 +2°C° 0.2 mm 0 mps 681 mmHg 85%
    07:00 +3°C° 0.1 mm 0 mps 681 mmHg 85%
    08:00 +3°C° 0.1 mm 0 mps 682 mmHg 84%
    09:00 +4°C° 0.1 mm 0 mps 682 mmHg 84%
    10:00 +5°C° 0.1 mm 0 mps 682 mmHg 83%
    11:00 +6°C° 0.1 mm 1 mps 682 mmHg 82%
    12:00 +7°C° 0.1 mm 1 mps 682 mmHg 81%
    13:00 +7°C° 0.1 mm 1 mps 682 mmHg 80%
    14:00 +7°C° 0.1 mm 1 mps 682 mmHg 79%
    15:00 +7°C° 0.1 mm 2 mps 682 mmHg 79%
    16:00 +7°C° 0.1 mm 1 mps 682 mmHg 79%
    17:00 +6°C° 0.1 mm 1 mps 682 mmHg 79%
    18:00 +5°C° 0.1 mm 1 mps 682 mmHg 79%
    19:00 +5°C° 0 mm 1 mps 682 mmHg 78%
    20:00 +5°C° 0 mm 1 mps 683 mmHg 78%
    21:00 +4°C° 0 mm 1 mps 683 mmHg 78%
    22:00 +4°C° 0 mm 1 mps 683 mmHg 76%
    23:00 +4°C° 0 mm 1 mps 683 mmHg 75%

    20 February, Tuesday

    Time Temperature Precipitation Wind Pressure Humidity
    00:00 +4°C° 0 mm 1 mps 683 mmHg 74%
    01:00 +4°C° 0 mm 1 mps 683 mmHg 73%
    02:00 +3°C° 0 mm 1 mps 683 mmHg 72%
    03:00 +2°C° 0 mm 2 mps 683 mmHg 72%
    04:00 +2°C° 0 mm 2 mps 683 mmHg 72%
    05:00 +3°C° 0 mm 1 mps 683 mmHg 71%
    06:00 +3°C° 0 mm 1 mps 683 mmHg 71%
    07:00 +4°C° 0 mm 1 mps 684 mmHg 72%
    08:00 +6°C° 0 mm 1 mps 684 mmHg 72%
    09:00 +7°C° 0 mm 1 mps 684 mmHg 73%
    10:00 +8°C° 0 mm 1 mps 684 mmHg 72%
    11:00 +8°C° 0 mm 1 mps 684 mmHg 71%
    12:00 +8°C° 0 mm 2 mps 683 mmHg 70%
    13:00 +8°C° 0 mm 2 mps 683 mmHg 69%
    14:00 +9°C° 0 mm 2 mps 683 mmHg 69%
    15:00 +9°C° 0 mm 2 mps 682 mmHg 68%
    16:00 +8°C° 0 mm 2 mps 682 mmHg 70%
    17:00 +7°C° 0 mm 1 mps 682 mmHg 73%
    18:00 +6°C° 0 mm 1 mps 682 mmHg 75%
    19:00 +6°C° 0 mm 1 mps 682 mmHg 74%
    20:00 +6°C° 0 mm 1 mps 682 mmHg 72%
    21:00 +4°C° 0 mm 0 mps 683 mmHg 71%
    22:00 +4°C° 0 mm 0 mps 683 mmHg 70%
    23:00 +5°C° 0 mm 1 mps 683 mmHg 70%

    21 February, Wednesday

    Time Temperature Precipitation Wind Pressure Humidity
    00:00 +5°C° 0 mm 1 mps 683 mmHg 69%
    01:00 +5°C° 0 mm 1 mps 682 mmHg 70%
    02:00 +5°C° 0 mm 1 mps 682 mmHg 71%
    03:00 +4°C° 0 mm 1 mps 682 mmHg 72%
    04:00 +4°C° 0 mm 1 mps 683 mmHg 72%
    05:00 +4°C° 0 mm 1 mps 683 mmHg 73%
    06:00 +4°C° 0 mm 1 mps 683 mmHg 73%
    07:00 +5°C° 0 mm 1 mps 683 mmHg 72%
    08:00 +6°C° 0 mm 1 mps 683 mmHg 71%
    09:00 +7°C° 0 mm 1 mps 684 mmHg 70%
    10:00 +8°C° 0 mm 1 mps 684 mmHg 69%
    11:00 +8°C° 0 mm 1 mps 683 mmHg 69%
    12:00 +8°C° 0 mm 2 mps 683 mmHg 68%
    13:00 +8°C° 0 mm 2 mps 683 mmHg 68%
    14:00 +8°C° 0 mm 2 mps 683 mmHg 68%
    15:00 +8°C° 0 mm 2 mps 682 mmHg 69%
    16:00 +8°C° 0 mm 2 mps 683 mmHg 72%
    17:00 +8°C° 0 mm 1 mps 683 mmHg 75%
    18:00 +7°C° 0 mm 1 mps 683 mmHg 79%
    19:00 +7°C° 0 mm 1 mps 683 mmHg 80%
    20:00 +6°C° 0 mm 1 mps 683 mmHg 80%
    21:00 +6°C° 0 mm 1 mps 684 mmHg 81%
    22:00 +6°C° 0 mm 1 mps 683 mmHg 81%
    23:00 +6°C° 0 mm 1 mps 683 mmHg 81%

    22 February, Thursday

    Time Temperature Precipitation Wind Pressure Humidity
    00:00 +4°C° 0 mm 0 mps 683 mmHg 81%
    01:00 +4°C° 0 mm 0 mps 683 mmHg 81%
    02:00 +4°C° 0 mm 0 mps 683 mmHg 80%
    03:00 +4°C° 0 mm 0 mps 683 mmHg 79%
    04:00 +3°C° 0 mm 0 mps 683 mmHg 78%
    05:00 +3°C° 0 mm 0 mps 683 mmHg 77%
    06:00 +3°C° 0 mm 0 mps 683 mmHg 76%
    07:00 +5°C° 0 mm 1 mps 683 mmHg 73%
    08:00 +6°C° 0 mm 1 mps 684 mmHg 70%
    09:00 +7°C° 0 mm 1 mps 684 mmHg 67%
    10:00 +8°C° 0 mm 1 mps 684 mmHg 65%
    11:00 +9°C° 0 mm 1 mps 683 mmHg 63%
    12:00 +9°C° 0 mm 2 mps 683 mmHg 61%
    13:00 +9°C° 0 mm 2 mps 683 mmHg 60%
    14:00 +9°C° 0 mm 2 mps 682 mmHg 59%
    15:00 +10°C° 0 mm 2 mps 682 mmHg 58%
    16:00 +10°C° 0 mm 1 mps 682 mmHg 62%
    17:00 +9°C° 0 mm 1 mps 682 mmHg 65%
    18:00 +8°C° 0 mm 1 mps 682 mmHg 69%
    19:00 +7°C° 0 mm 1 mps 682 mmHg 68%
    20:00 +7°C° 0 mm 1 mps 682 mmHg 67%
    21:00 +6°C° 0 mm 1 mps 682 mmHg 66%
    22:00 +6°C° 0 mm 1 mps 682 mmHg 65%
    23:00 +6°C° 0 mm 1 mps 682 mmHg 63%
    Show more